TimeCET,TemperatureF,Dew PointF,Humidity,Sea Level PressureIn,VisibilityMPH,Wind Direction,Wind SpeedMPH,Gust SpeedMPH,PrecipitationIn,Events,Conditions,WindDirDegrees,DateUTC
12:00 AM,32.0,32.0,100,29.53,6.2,SE,1.2,-,N/A,,Mostly Cloudy,140,2013-01-19 23:00:00
12:30 AM,32.0,30.2,93,29.53,3.1,Calm,Calm,-,N/A,,Partly Cloudy,0,2013-01-19 23:30:00
1:00 AM,32,31,92,29.56,2,Calm,Calm,,,,Mist,,2013-01-20 00:00:00
1:00 AM,32.0,30.2,93,29.53,2.5,Calm,Calm,-,N/A,,Partly Cloudy,0,2013-01-20 00:00:00
1:30 AM,32.0,32.0,100,29.53,3.1,Calm,Calm,-,N/A,,Overcast,0,2013-01-20 00:30:00
2:00 AM,32.0,32.0,100,29.53,3.1,Calm,Calm,-,N/A,,Overcast,0,2013-01-20 01:00:00
2:30 AM,32.0,32.0,100,29.53,2.5,Calm,Calm,-,N/A,,Overcast,0,2013-01-20 01:30:00
3:00 AM,32.0,32.0,100,29.53,2.5,Variable,2.3,-,N/A,,Overcast,0,2013-01-20 02:00:00
3:30 AM,32.0,32.0,100,29.53,2.5,Calm,Calm,-,N/A,,Overcast,0,2013-01-20 02:30:00
4:00 AM,33,32,92,29.54,4,Calm,Calm,,,,Mist,,2013-01-20 03:00:00
4:00 AM,32.0,32.0,100,29.50,3.1,Calm,Calm,-,N/A,,Overcast,0,2013-01-20 03:00:00
4:30 AM,33.8,32.0,93,29.50,3.1,Variable,1.2,-,N/A,,Overcast,0,2013-01-20 03:30:00
5:00 AM,33.8,32.0,93,29.50,1.9,ENE,3.5,-,N/A,Fog,Patches of Fog,60,2013-01-20 04:00:00
5:30 AM,33.8,32.0,93,29.50,2.5,ENE,4.6,-,N/A,,Overcast,60,2013-01-20 04:30:00
6:00 AM,33.8,32.0,93,29.50,2.5,ENE,3.5,-,N/A,,Overcast,60,2013-01-20 05:00:00
6:30 AM,33.8,32.0,93,29.50,3.1,NNE,4.6,-,N/A,,Overcast,30,2013-01-20 05:30:00
7:00 AM,33,32,93,,3,NE,2.2,,,,Mist,40,2013-01-20 06:00:00
7:00 AM,33.8,32.0,93,29.50,3.1,NE,3.5,-,N/A,,Mostly Cloudy,40,2013-01-20 06:00:00
7:30 AM,33.8,32.0,93,29.50,2.2,NE,4.6,-,N/A,,Mostly Cloudy,40,2013-01-20 06:30:00
8:00 AM,33.8,32.0,93,29.50,2.2,NE,3.5,-,N/A,,Mostly Cloudy,40,2013-01-20 07:00:00
8:30 AM,33.8,32.0,93,29.50,3.1,NE,2.3,-,N/A,,Overcast,40,2013-01-20 07:30:00
9:00 AM,35.6,32.0,87,29.50,3.1,NE,3.5,-,N/A,,Mostly Cloudy,40,2013-01-20 08:00:00
9:30 AM,35.6,33.8,93,29.50,3.7,Variable,2.3,-,N/A,,Scattered Clouds,0,2013-01-20 08:30:00
10:00 AM,37,34,84,29.54,4,Calm,Calm,,,,Mist,,2013-01-20 09:00:00
10:00 AM,37.4,33.8,87,29.50,3.7,Calm,Calm,-,N/A,,Unknown,0,2013-01-20 09:00:00
10:30 AM,37.4,33.8,87,29.50,3.7,Calm,Calm,-,N/A,,Partly Cloudy,0,2013-01-20 09:30:00
11:00 AM,37.4,33.8,87,29.50,3.7,Calm,Calm,-,N/A,,Mostly Cloudy,0,2013-01-20 10:00:00
11:30 AM,39.2,33.8,81,29.50,3.1,Calm,Calm,-,N/A,,Scattered Clouds,0,2013-01-20 10:30:00
12:00 PM,37.4,33.8,87,29.50,3.1,WNW,4.6,-,N/A,,Partly Cloudy,290,2013-01-20 11:00:00
12:30 PM,37.4,33.8,87,29.47,2.2,Variable,2.3,-,N/A,,Mist,0,2013-01-20 11:30:00
1:00 PM,39,35,78,29.49,2,Calm,Calm,,,Rain,Light Rain,,2013-01-20 12:00:00
1:00 PM,39.2,33.8,81,29.47,2.2,Calm,Calm,-,N/A,,Mist,0,2013-01-20 12:00:00
1:30 PM,39.2,33.8,81,29.47,2.2,Calm,Calm,-,N/A,,Mist,0,2013-01-20 12:30:00
2:00 PM,39.2,33.8,81,29.44,2.2,Calm,Calm,-,N/A,,Mostly Cloudy,0,2013-01-20 13:00:00
2:30 PM,39.2,35.6,87,29.44,2.2,Calm,Calm,-,N/A,,Mostly Cloudy,0,2013-01-20 13:30:00
3:00 PM,39.2,33.8,81,29.44,1.9,Calm,Calm,-,N/A,,Partly Cloudy,0,2013-01-20 14:00:00
3:30 PM,39.2,33.8,81,29.44,1.9,Calm,Calm,-,N/A,,Partly Cloudy,0,2013-01-20 14:30:00
4:00 PM,38,34,79,29.47,2,Calm,Calm,,,,Mist,,2013-01-20 15:00:00
4:00 PM,37.4,33.8,87,29.44,1.6,Calm,Calm,-,N/A,,Partly Cloudy,0,2013-01-20 15:00:00
4:30 PM,37.4,33.8,87,29.44,1.6,Calm,Calm,-,N/A,,Mist,0,2013-01-20 15:30:00
5:00 PM,37.4,33.8,87,29.44,1.6,Variable,1.2,-,N/A,,Mist,0,2013-01-20 16:00:00
5:30 PM,35.6,32.0,87,29.44,1.6,Calm,Calm,-,N/A,,Mist,0,2013-01-20 16:30:00
6:00 PM,35.6,32.0,87,29.44,1.6,Calm,Calm,-,N/A,,Mist,0,2013-01-20 17:00:00
6:30 PM,35.6,32.0,87,29.44,1.6,Variable,1.2,-,N/A,,Mist,0,2013-01-20 17:30:00
7:00 PM,35,33,87,29.47,2,Calm,Calm,,,Rain,Light Rain,,2013-01-20 18:00:00
7:00 PM,35.6,32.0,87,29.44,1.6,Calm,Calm,-,N/A,Rain,Light Rain,0,2013-01-20 18:00:00
7:30 PM,35.6,32.0,87,29.44,1.2,Calm,Calm,-,N/A,Rain,Light Rain,0,2013-01-20 18:30:00
8:00 PM,33.8,32.0,93,29.44,0.9,West,3.5,-,N/A,Rain,Light Rain,260,2013-01-20 19:00:00
8:30 PM,33.8,33.8,100,29.44,0.9,WNW,3.5,-,N/A,Rain,Light Rain,300,2013-01-20 19:30:00
9:00 PM,35.6,33.8,93,29.44,0.9,SW,4.6,-,N/A,Rain,Rain,220,2013-01-20 20:00:00
9:30 PM,35.6,33.8,93,29.44,0.9,SW,3.5,-,N/A,Rain,Light Rain,220,2013-01-20 20:30:00
10:00 PM,35,34,92,29.49,0,SW,4.5,,,Rain,Light Rain,220,2013-01-20 21:00:00
10:00 PM,35.6,33.8,93,29.47,0.5,SW,4.6,-,N/A,Fog-Rain,Light Rain,230,2013-01-20 21:00:00
10:30 PM,35.6,33.8,93,29.47,0.5,WSW,3.5,-,N/A,Fog-Rain,Light Rain,240,2013-01-20 21:30:00
11:00 PM,35.6,33.8,93,29.47,0.5,SSE,1.2,-,N/A,Fog-Rain,Light Rain,150,2013-01-20 22:00:00
11:30 PM,35.6,33.8,93,29.44,0.5,Calm,Calm,-,N/A,Fog-Rain,Light Rain,0,2013-01-20 22:30:00